Location: Unspecified
(0.0000°N, 0.0000°E)
Time: 12:01:05
(UTC+00:00)

Courier 1B Rocket - Pass Details

Date: 21 December 2018
Orbit: 920 x 1202 km, 28.2° (Epoch: 26 March)

Event Time Altitude Azimuth Distance (km) Brightness Sun altitude
Rises 11:32:26 0° 330° (NNW) 3,727 7.8 65.7°
Reaches altitude 10° 11:36:52 10° 357° (N) 2,845 7.3 66.0°
Maximum altitude 11:39:57 13° 24° (NNE) 2,664 7.2 66.2°
Drops below altitude 10° 11:43:06 10° 50° (NE) 2,943 7.5 66.3°
Sets 11:47:50 0° 76° (ENE) 3,970 8.2 66.4°
